AirNav   Textron
 
 1636 users online  

43K Marion Municipal Airport
Marion, Kansas, USA


FAA INFORMATION EFFECTIVE 14 SEPTEMBER 2017

Location

FAA Identifier: 43K
Lat/Long: 38-20-15.4000N / 096-59-17.7000W
38-20.256667N / 096-59.295000W
38.3376111 / -96.9882500
(estimated)
Elevation: 1390 ft. / 424 m (estimated)
Variation: 07E (1985)
From city: 2 miles SE of MARION, KS
Time zone: UTC -5 (UTC -6 during Standard Time)
Zip code: 66861

Airport Operations

Airport use: Open to the public
Activation date: 12/1945
Control tower: no
ARTCC: KANSAS CITY CENTER
FSS: WICHITA FLIGHT SERVICE STATION
NOTAMs facility: ICT (NOTAM-D service available)
Attendance: UNATNDD
PHONE AVBL 24 HRS.
Wind indicator: yes
Segmented circle: no
Beacon: white-green (lighted land airport)
Operates sunset to sunrise.

Airport Communications

CTAF: 122.9

Nearby radio navigation aids

VOR radial/distance  VOR name  Freq  Var
FRIr183/(38.4)FORT RILEY VOR109.4006E

 
NDB name  Hdg/Dist  Freq  Var  ID
NEWTON033/21.228106EEWK . .-- -.-
HERINGTON195/22.940706EHRU .... .-. ..-

Airport Services

Fuel available: 100LL MOGAS
Parking: hangars and tiedowns
Airframe service: NONE
Powerplant service: NONE
Bottled oxygen: NONE
Bulk oxygen: NONE

Runway Information

Runway 17/35

Dimensions: 2573 x 40 ft. / 784 x 12 m
Surface: asphalt, in good condition
Runway edge lights: low intensity
Runway edge markings: RWY 35 ALIGNMENT NUMBERS FADED.
RUNWAY 17  RUNWAY 35
Latitude: 38-20.455545N38-20.031528N
Longitude: 096-59.227317W096-59.227317W
Elevation: 1382.0 ft.1378.0 ft.
Traffic pattern: leftleft
Runway heading: 173 magnetic, 180 true353 magnetic, 000 true
Markings: numbers only, in good conditionnumbers only, in good condition

Runway 3/21

Dimensions: 2745 x 95 ft. / 837 x 29 m
Surface: turf, in good condition
RY 03/21 IS SLIGHTLY ROUGH.
Runway edge markings: 03/21 THLDS & EDGES MKD WITH YELLOW PAINTED TIRES.
RUNWAY 3  RUNWAY 21
Traffic pattern: leftleft
Obstructions: 4 ft. fence
THE PROXIMITY OF THE FENCE TO THE RWY ESTABLISHES THE CONTROLLING OBSTRUCTION. THE 35' TO 40' TREES DIRECTLY BEHIND WOULD BE MORE OF A CONCERN FOR APPROACHING AIRCRAFT.
22 ft. pline, 735 ft. from runway, 170 ft. left of centerline, 33:1 slope to clear

Runway 13/31

Dimensions: 2722 x 50 ft. / 830 x 15 m
Surface: turf, in good condition
Runway edge markings: 13/31 THLD & EDGES MKD WITH YELLOW PAINTED TIRES.
RUNWAY 13  RUNWAY 31
Traffic pattern: leftleft
Obstructions: 14 ft. treesnone

Runway 18/36

Dimensions: 2310 x 67 ft. / 704 x 20 m
Surface: turf, in good condition
Runway edge markings: RY 18/36 THLD DELINEATED WITH YELLOW PAINTED TIRES.
RUNWAY 18  RUNWAY 36
Latitude: 38-20.459450N38-20.079648N
Longitude: 096-59.352258W096-59.385003W
Elevation: 1380.0 ft.1378.0 ft.
Traffic pattern: leftleft
Runway heading: 177 magnetic, 184 true357 magnetic, 004 true
Obstructions: 4 ft. fence, 9 ft. from runway, 30 ft. left and right of centerline, 2:1 slope to clearnone

Airport Ownership and Management from official FAA records

Ownership: Publicly-owned
Owner: CITY OF MARION
208 EAST SANTA FE
MARION, KS 66861
Phone 620-382-3703
Manager: DOUG KJELLIN
208 EAST SANTA FE
MARION, KS 66861
Phone 620-382-3703
MR.MAYFIELD IS CITY MGR. OF MARION KS.

Airport Operational Statistics

Aircraft based on the field: 17
Single engine airplanes: 16
Ultralights: 1
    
Aircraft operations: avg 25/day *
66% local general aviation
33% transient general aviation
<1% military
* for 12-month period ending 29 September 2016

Additional Remarks

A58-35 RWY 35 ROAD ABANDONED & IS GATED FM TRAFFIC. +4 FT FENCE; 70 FT FRM END OF RWY; BOTH SIDES OF RWY.
A58-17 +4' FENCE 5' FROM RWY END 30' L & R OF CNTRLEN; LOWERED AT RWY.

Instrument Procedures

There are no published instrument procedures at 43K.

Some nearby airports with instrument procedures:

KEWK - Newton City/County Airport (22 nm SW)
KHRU - Herington Regional Airport (23 nm N)
47K - Moundridge Municipal Airport (25 nm W)
KMPR - Mc Pherson Airport (33 nm W)
1K1 - Lloyd Stearman Field Airport (34 nm S)
 
Loc | Ops | Rwys | IFR | FBO | Links
Com | Nav | Svcs | Stats | Notes

Kansas City Aviation Department
 
Area around 43K (Marion Municipal Airport)
 
Road maps at: MapQuest Bing Google
 
Aerial photo
WARNING: Photo may not be current or correct
Aerial photo of 43K (Marion Municipal Airport)
Photo by Paul Hodson
Photo taken 21-Jan-2006
taken from a C182 from the northwest

Do you have a better or more recent aerial photo of Marion Municipal Airport that you would like to share? If so, please send us your photo.

 
Sectional chart

 
Airport distance calculator
Flying to Marion Municipal Airport? Find the distance to fly.

From to 43K

Sunrise and sunset
Times for 21-Sep-2017
 Local
(UTC-5)
 Zulu
(UTC)
Morning civil twilight06:4911:49
Sunrise07:1612:16
Sunset19:2600:26
Evening civil twilight19:5300:53

Current date and time
Zulu (UTC)  21-Sep-2017 19:16:21
Local (UTC-5)  21-Sep-2017 14:16:21
 
METAR
KEWK 
22nm SW 
211856Z AUTO 17018G24KT 10SM CLR 33/22 A2983 RMK AO2 PK WND 17027/1823 SLP083 T03280222
K1K1 
34nm S 
211855Z AUTO 18016G22KT 10SM CLR 33/22 A2984 RMK AO2 T03290216
KEQA 
35nm S 
211855Z AUTO 18014G22KT 10SM CLR 35/22 A2985 RMK AO2
KAAO 
37nm S 
211854Z AUTO 18014G25KT 10SM CLR 33/22 A2983 RMK AO2 PK WND 20027/1806 SLP083 T03330222
KEMP 
37nm E 
211853Z AUTO 16018G26KT 10SM CLR 32/23 A2984 RMK AO2 PK WND 16026/1847 SLP092 T03220228
KBEC 
40nm S 
211855Z AUTO 17014G22KT 10SM CLR 33/21 A2983 RMK AO2 T03320211
K3AU 
40nm S 
211855Z AUTO 16018G24KT 10SM SCT043 33/22 A2984 RMK AO2
KSLN 
41nm NW 
211853Z 16018G26KT 10SM FEW110 37/20 A2977 RMK AO2 PK WND 17027/1840 SLP064 T03670200
KFRI 
43nm N 
211858Z AUTO 16012G21KT 10SM CLR 35/22 A2978 RMK AO2 SLP071 T03490219
KHUT 
44nm W 
211852Z 16019G26KT 10SM CLR 36/21 A2980 RMK AO2 PK WND 16026/1812 SLP063 T03560211
TAF
KSLN 
41nm NW 
211720Z 2118/2218 18020G28KT P6SM SCT050 FM220200 17017G24KT P6SM SCT250
KFRI 
43nm N 
211600Z 2116/2222 18015G20KT 9999 FEW120 QNH2975INS BECMG 2119/2120 18020G30KT 9999 FEW050 QNH2977INS BECMG 2202/2203 17015G25KT 9999 FEW025 QNH2982INS BECMG 2205/2206 18015KT 9999 FEW025 510102 QNH2985INS BECMG 2214/2215 18020G30KT 9999 SKC QNH2983INS TX33/2121Z TN23/2212Z
KHUT 
44nm W 
211720Z 2118/2218 18020G28KT P6SM SCT050 FM220200 17016G24KT P6SM SCT250
KIAB 
45nm S 
211800Z 2118/2224 19015G25KT 9999 FEW120 QNH2976INS BECMG 2123/2124 17010G15KT 9999 FEW100 510201 QNH2983INS BECMG 2214/2215 18012G18KT 9999 SCT030 QNH2988INS TX34/2121Z TN23/2212Z
KICT 
46nm SW 
211720Z 2118/2218 18020G28KT P6SM SCT050 FM220200 17016G24KT P6SM SCT250
KMHK 
50nm N 
211720Z 2118/2218 20013G23KT P6SM SCT030 FM220500 19012KT P6SM FEW250 WS013/20040KT FM221300 19013G23KT P6SM SCT250
NOTAMs
Click for the latest NOTAMs
NOTAMs are issued by the DoD/FAA and will open in a separate window not controlled by AirNav.

 

 
 

Would you like to see your business listed on this page?

 If your business provides an interesting product or service to pilots, flight crews, aircraft, or users of the Marion Municipal Airport, you should consider listing it here.  To start the listing process, click on the button below
 
Add a business
 

Other Pages about Marion Municipal Airport

Update a link
 
Copyright © AirNav, LLC. All rights reserved. Privacy Policy  Contact